Location: Bonaustraße
(48.4603°N, 11.9280°E)
Time: 21:04:40
(UTC+02:00)

AO-92 - Pass Details

Date: 31 July 2021
Orbit: 484 x 494 km, 97.4° (Epoch: 17 September)

Event Time Altitude Azimuth Distance (km) Brightness Sun altitude
Exits shadow 21:38:47 - 97° (E) 1,960 ? -7.5°
Reaches altitude 10° 21:40:15 10° 78° (ENE) 1,672 ? -7.7°
Maximum altitude 21:41:20 11° 60° (ENE) 1,601 ? -7.8°
Drops below altitude 10° 21:42:27 10° 42° (NE) 1,676 ? -7.9°
Sets 21:45:51 0° 7° (N) 2,564 ? -8.4°
